Home > Weather > Gonda > Past weeks

Flag for India Weather for the Past 2 Weeks in Gonda, Uttar Pradesh, India

Now
122 °F

Extremely hot.


Feels Like: 112 °F
Forecast: 79 / 102 °F
Wind: N/A

Location: Lucknow / Amausi

Current Time: May 4, 2016 at 6:15:49 AM

Latest Report: May 4, 2016 at 5:00 AM


Visibility: N/A

Pressure: N/A

Humidity: 6%

Dew Point: 37 °F

Location of GondaLocation

Historic Weather in Gonda — Graph

°F

Gonda Temperature Yesterday

Maximum temperature yesterday: 104 °F (at 4:00 PM)
Minimum temperature yesterday: 81 °F (at 6:00 AM)
Average temperature yesterday: 92 °F

High & Low Weather Summary for the Past Weeks

 TemperatureHumidityPressure
High122 °F (May 4, 5:00 AM)70% (May 3, 6:00 AM)29.77 "Hg (May 3, 6:00 AM)
Low72 °F (Apr 25, 6:00 AM)6% (May 4, 5:00 AM)29.45 "Hg (Apr 23, 4:00 AM)
Average95 °F23%29.63 "Hg
* Reported Apr 19 5:00 AM — May 4 5:00 AM, Gonda, Weather by CustomWeather, © 2016

Note: Actual official high and low records may vary slightly from our data, if they occured in-between our weather recording intervals... More about our weather records

Advertising

Gonda Weather History for the Previous 24 Hours

Scroll right to see more
 ConditionsComfort  
Time TempWeatherWind HumidityBarometerVisibility
5:00 AM
Wed, May 4
122 °FExtremely hot.N/A6%N/AN/A
4:00 AM82 °FMostly cloudy.7 mph51%29.62 "Hg2 mi
3:00 AM81 °FMostly cloudy.5 mph58%29.62 "Hg2 mi
2:00 AM82 °FMostly cloudy.No wind55%29.65 "Hg2 mi
1:00 AM84 °FMostly cloudy.7 mph58%29.68 "Hg2 mi
12:00 AM88 °FThunderstorms. Mostly cloudy.6 mph43%29.65 "Hg1 mi
10:00 PM
Tue, May 3
95 °FPartly cloudy.2 mph47%29.68 "Hg2 mi
9:00 PM95 °FPartly cloudy.2 mph44%29.65 "Hg2 mi
8:30 PM95 °FPartly cloudy.3 mph44%29.65 "Hg2 mi
8:00 PM97 °FPassing clouds.3 mph42%29.62 "Hg2 mi
7:30 PM97 °FPassing clouds.6 mph42%29.59 "Hg2 mi
7:00 PM99 °FScattered clouds.6 mph42%29.56 "Hg2 mi
6:30 PM99 °FScattered clouds.No wind42%29.56 "Hg2 mi
6:00 PM100 °FScattered clouds.No wind40%29.56 "Hg2 mi
5:00 PM102 °FScattered clouds.3 mph37%29.56 "Hg2 mi
4:30 PM104 °FScattered clouds.3 mph35%29.59 "Hg2 mi
4:00 PM104 °FScattered clouds.3 mph35%29.59 "Hg2 mi
3:00 PM102 °FScattered clouds.5 mph37%29.59 "Hg2 mi
2:30 PM100 °FScattered clouds.6 mph40%29.62 "Hg2 mi
2:00 PM100 °FScattered clouds.5 mph40%29.65 "Hg2 mi
1:00 PM99 °FScattered clouds.7 mph42%29.68 "Hg2 mi
12:30 PM97 °FScattered clouds.9 mph44%29.68 "Hg2 mi
12:00 PM97 °FScattered clouds.12 mph44%29.68 "Hg2 mi
11:30 AM95 °FScattered clouds.14 mph47%29.71 "Hg2 mi
11:00 AM93 °FScattered clouds.14 mph47%29.71 "Hg2 mi
10:00 AM90 °FScattered clouds.14 mph52%29.71 "Hg2 mi
9:30 AM88 °FScattered clouds.12 mph55%29.71 "Hg2 mi
9:00 AM86 °FScattered clouds.12 mph55%29.71 "Hg2 mi
8:30 AM84 °FScattered clouds.12 mph62%29.71 "Hg2 mi
8:00 AM84 °FScattered clouds.12 mph62%29.71 "Hg2 mi
7:30 AM82 °FScattered clouds.12 mph66%29.68 "Hg2 mi
7:00 AM82 °FScattered clouds.13 mph66%29.68 "Hg2 mi
6:30 AM81 °FScattered clouds.8 mph70%29.65 "Hg2 mi
6:00 AM81 °FScattered clouds.7 mph70%29.65 "Hg2 mi
Weather by CustomWeather, © 2016

See weather overviewHow to use our weather pages